MET3421 - Oklahoma City to Kansas City

Bombardier Dash-8-Q400
857AG
1 hr 00 mins
272 nm
Scheduled - Daily

Bid/PiRep Status

Bid was submitted on November 1st, 2016 5:35 UTC.
PiRep # 73876: Approved by Dave Nichols on November 2nd, 2016 4:08 UTC

Departure

Departing from
Oklahoma City (OKC)
Departure gate
8
Scheduled Departure
GMT 1235
Local 0735
METAR KOKC 232252Z 16013G20KT 10SM FEW060 31/16 A2989 RMK AO2 SLP107 T03060161
TAF KOKC 231743Z 2318/2418 18013G21KT P6SM SCT035 FM240000 15009KT P6SM SKC FM241500 18012KT P6SM BKN025

Route Map

Planning Resources

KOKC,IRW,TUL,DOSOA,KMCI
KOKC VIA IRW IBAPE PER EMP JHAWK HOOZE RUGB NOHS KMCI
KOKC ICT UTEKE KMCI
LOKC DCT CNU STAR KMCI
KOKC-PER-EMP-TOP-KMCI
Route:
OFP Layout:
Units:
Detailed Navlog:
ETOPS Planning:
Plan Stepclimbs:
Runway Analysis:
Include NOTAMS:
FIR NOTAMS:
Flight Maps:

Return Flights

MET2281
Bombardier Dash-8-Q200
1400 GMT
MET2285
Bombardier Dash-8-Q200
2040 GMT
MET3420
Bombardier Dash-8-Q400
0125 GMT
MET3422
Bombardier Dash-8-Q400
1805 GMT

Popularity

Hub Current Bids PiReps this month Total PiReps
KMCI 0 1 90
KLAX 0 0 1
KBOS 0 0 0